STARLINK-36229, 68114

Orbit data source: Space-Track

STARLINK-36229, 68114 is a payload satellite owned by SpaceX/Seattle (US) in SSO that was launched on Sun, 08 Mar 2026 UTC via an FALCON 9 launch vehicle from the Air Force Western Test Range (AFWTR). Payload-class satellites include a variety of spacecraft equipped with specific instruments for various scientific and technological missions. These include communications satellites like Starlink; space stations such as the ISS; scientific satellites like the Hubble; Earth observation satellites from companies like Planet Labs, Umbra, and HawkEye 360; GPS; miniature CubeSats for education and research; and military/defense satellites.

Loading next visibility...
Identifier
68114, 2026-044P
Orbit
SSO
Country
Flag of USUS
Related business
Manufacturer
SpaceX/Seattle
Mission
Operational spacecraft
Bus & Motor
STARLINK V2MO, Unknown motor
Mass
575 kg wet, ~530 kg dry
Launch date (UTC)
2026-03-08 (2 months ago)
Launch vehicle
FALCON 9
Launch site
Air Force Western Test Range (AFWTR)
Object type
Payload
Rocket body
Debris
Shape & HBR
Unknown shape, 17.7 m
Radar Cross Section
RCS unknown

Expand to show TLE details & history
Last TLE update: 11 hours ago

TLE from 11 hours ago
0 STARLINK-36229
1 68114U 26044P   26119.45603563  .00019838  00000-0  61509-3 0  9990
2 68114  97.2856  80.4524 0001441  94.8071 265.3336 15.33450745  9364
Epoch: 2026-04-29T10:56Z
TLE epoch observation values (Epoch: 2026-04-29T10:56:41.478Z)
Latitude
-0.00005°
Longitude
58.86284°
Altitude
468.718 km
Speed
7.632 km/s
True Right ascension
05h 21m 48s
True Declination
0° 00' 00"
Sunlit
Object was in daylight at epoch
Visualization orbit readout
Latitude
Unknown
Longitude
Unknown
Altitude
Unknown
Speed
Unknown
Apparent Right ascension
Unknown
Apparent Declination
Unknown
Sunlit
N/A
Visualization observer readout
Local Sidereal Time
05:38:53
Azimuth
Unknown
Elevation
Unknown
Doppler factor
Unknown
Orbital elements
Apogee altitude
463.455 km
Perigee altitude
461.483 km
Semi-major axis
6,840.606 km
Eccentricity
0.00014
Inclination
97.2856°
RAAN
80.4524°
Arg. of periapsis
94.8071°
True anomaly
265.31714°
Mean anomaly
265.3336°
Eccentric anomaly
265.32537°
Mean motion
3.8362 °/min
Orbital period
93.84 mins
BSTAR
0.00061509
Loading maneuver chart data...
Computing Atmospheric mass density...
Loading historical data...
Loading historical data...
Loading historical data...
Loading historical data...
Loading historical data...
Loading historical data...
Loading historical data...

Documentation

Showing up to 5 results
|